This is the latest recevied weather packets stored in our database for station/object N0KWA. If no packets are shown the sender has not sent any weather packets the latest 10 day(s).
| Time | Temp. | Humidity | Pressure | Rain* | Wind** | Luminosity | Snow |
|---|---|---|---|---|---|---|---|
| 1777996274 | 24.44° C | 77% | 1015.6 hPa | 0 mm | - | 54 W/m² | - |
| 1777995970 | 24.44° C | 77% | 1015.6 hPa | 0 mm | - | 55 W/m² | - |
| 1777995666 | 24.44° C | 77% | 1015.6 hPa | 0 mm | - | 40 W/m² | - |
| 1777995364 | 24.44° C | 77% | 1015.6 hPa | 0 mm | - | 49 W/m² | - |
| 1777995061 | 24.44° C | 77% | 1015.6 hPa | 0 mm | - | 33 W/m² | - |
| 1777994757 | 24.44° C | 77% | 1015.6 hPa | 0 mm | - | 39 W/m² | - |
| 1777994453 | 23.89° C | 79% | 1015.5 hPa | 0 mm | - | 41 W/m² | - |
| 1777994148 | 23.89° C | 80% | 1015.6 hPa | 0 mm | - | 44 W/m² | - |
| 1777993847 | 23.33° C | 80% | 1015.7 hPa | 0 mm | - | 49 W/m² | - |
| 1777993542 | 23.33° C | 81% | 1015.6 hPa | 0 mm | - | 52 W/m² | - |
| 1777993239 | 22.78° C | 83% | 1015.7 hPa | 0 mm | - | 52 W/m² | - |
| 1777992935 | 22.78° C | 84% | 1015.7 hPa | 0 mm | - | 32 W/m² | - |
| 1777992633 | 22.78° C | 85% | 1015.7 hPa | 0 mm | - | 39 W/m² | - |
| 1777992331 | 22.22° C | 85% | 1015.8 hPa | 0 mm | - | 34 W/m² | - |
| 1777992028 | 22.22° C | 86% | 1015.9 hPa | 0 mm | - | 35 W/m² | - |
| 1777991726 | 21.67° C | 89% | 1015.9 hPa | 0 mm | - | 33 W/m² | - |
| 1777991423 | 21.67° C | 90% | 1015.8 hPa | 0 mm | - | 35 W/m² | - |
| 1777991120 | 21.11° C | 93% | 1015.7 hPa | 0 mm | - | 31 W/m² | - |
| 1777990817 | 20.56° C | 92% | 1015.7 hPa | 0 mm | - | 29 W/m² | - |
| 1777990515 | 20.56° C | 94% | 1015.5 hPa | 0 mm | - | 29 W/m² | - |
| 1777989908 | 20° C | 97% | 1015.7 hPa | 0 mm | - | 32 W/m² | - |
| 1777989605 | 19.44° C | 98% | 1015.5 hPa | 0 mm | - | 27 W/m² | - |
| 1777989301 | 18.89° C | 99% | 1015.6 hPa | 0 mm | - | 27 W/m² | - |
| 1777988997 | 18.33° C | 99% | 1015.7 hPa | 0 mm | - | 26 W/m² | - |
| 1777988693 | 17.78° C | 99% | 1015.6 hPa | 0 mm | - | 23 W/m² | - |
* Rain latest hour (hover to see other rain measurements)
** Current wind speed in m/s (hover to see current wind gust speed)